Time,TemperatureF,DewpointF,PressureIn,WindDirection,WindDirectionDegrees,WindSpeedMPH,WindSpeedGustMPH,Humidity,HourlyPrecipIn,Conditions,Clouds,dailyrainin,SoftwareType,DateUTC
2013-05-28 00:02:00,68.6,63.9,29.88,SSE,162,0.0,0.0,85,0.00,,CLR,0.00,VWS V14.01,2013-05-28 05:02:00,
2013-05-28 00:07:00,68.6,63.9,29.89,SSE,162,0.0,0.0,85,0.00,,CLR,0.00,VWS V14.01,2013-05-28 05:07:00,
2013-05-28 00:12:00,68.5,63.8,29.89,SSE,162,0.0,0.0,85,0.00,,CLR,0.00,VWS V14.01,2013-05-28 05:12:00,
2013-05-28 00:17:00,68.5,64.2,29.89,SSE,162,0.0,0.0,86,0.00,,CLR,0.00,VWS V14.01,2013-05-28 05:17:00,
2013-05-28 00:22:00,68.4,64.1,29.89,SSE,162,0.0,0.0,86,0.00,,CLR,0.00,VWS V14.01,2013-05-28 05:22:00,
2013-05-28 00:27:00,68.1,63.8,29.89,SSE,162,0.0,0.0,86,0.00,,CLR,0.00,VWS V14.01,2013-05-28 05:27:00,
2013-05-28 00:32:00,67.9,63.6,29.89,SSE,162,0.0,3.0,86,0.00,,CLR,0.00,VWS V14.01,2013-05-28 05:32:00,
2013-05-28 00:38:00,67.7,63.4,29.89,SSE,162,0.0,3.0,86,0.00,,CLR,0.00,VWS V14.01,2013-05-28 05:38:00,
2013-05-28 00:43:00,67.5,62.8,29.89,SSE,162,0.0,3.0,85,0.00,,CLR,0.00,VWS V14.01,2013-05-28 05:43:00,
2013-05-28 00:48:00,67.6,62.6,29.90,SSE,162,0.0,3.0,84,0.00,,CLR,0.00,VWS V14.01,2013-05-28 05:48:00,
2013-05-28 00:53:00,67.8,62.8,29.90,SSE,162,0.0,3.0,84,0.00,,CLR,0.00,VWS V14.01,2013-05-28 05:53:00,
2013-05-28 00:58:00,67.9,62.5,29.90,SSE,162,0.0,6.0,83,0.00,,CLR,0.00,VWS V14.01,2013-05-28 05:58:00,
2013-05-28 01:03:00,68.1,62.4,29.90,SSE,162,1.5,7.5,82,0.00,,CLR,0.00,VWS V14.01,2013-05-28 06:03:00,
2013-05-28 01:08:00,68.6,62.2,29.90,SSE,162,0.0,7.5,80,0.00,,CLR,0.00,VWS V14.01,2013-05-28 06:08:00,
2013-05-28 01:13:00,69.0,62.2,29.90,SSE,162,1.5,7.5,79,0.00,,CLR,0.00,VWS V14.01,2013-05-28 06:13:00,
2013-05-28 01:18:00,69.4,62.2,29.90,SSE,162,0.0,7.5,78,0.00,,CLR,0.00,VWS V14.01,2013-05-28 06:18:00,
2013-05-28 01:23:00,69.7,62.2,29.89,SSE,162,0.0,7.5,77,0.00,,CLR,0.00,VWS V14.01,2013-05-28 06:23:00,
2013-05-28 01:28:00,70.0,62.1,29.90,SSE,162,0.0,7.5,76,0.00,,CLR,0.00,VWS V14.01,2013-05-28 06:28:00,
2013-05-28 01:33:00,70.1,62.2,29.89,SSE,162,0.0,6.0,76,0.00,,CLR,0.00,VWS V14.01,2013-05-28 06:33:00,
2013-05-28 01:38:00,70.4,62.1,29.89,SSE,162,0.0,10.5,75,0.00,,CLR,0.00,VWS V14.01,2013-05-28 06:38:00,
2013-05-28 01:43:00,70.5,62.2,29.89,SSE,162,1.5,10.5,75,0.00,,CLR,0.00,VWS V14.01,2013-05-28 06:43:00,
2013-05-28 01:48:00,70.6,62.3,29.89,SSE,162,0.0,10.5,75,0.00,,CLR,0.00,VWS V14.01,2013-05-28 06:48:00,
2013-05-28 01:53:00,70.7,62.4,29.89,SSE,162,0.0,10.5,75,0.00,,CLR,0.00,VWS V14.01,2013-05-28 06:53:00,
2013-05-28 01:58:00,70.9,62.2,29.89,SSE,162,3.0,10.5,74,0.00,,CLR,0.00,VWS V14.01,2013-05-28 06:58:00,
2013-05-28 02:03:00,70.9,62.2,29.89,SSE,162,1.5,6.0,74,0.00,,CLR,0.00,VWS V14.01,2013-05-28 07:03:00,
2013-05-28 02:08:00,70.9,62.2,29.89,SSE,162,3.0,7.5,74,0.00,,CLR,0.00,VWS V14.01,2013-05-28 07:08:00,
2013-05-28 02:13:00,70.9,62.2,29.88,SSE,161,1.5,9.0,74,0.00,,CLR,0.00,VWS V14.01,2013-05-28 07:13:00,
2013-05-28 02:18:00,70.8,62.1,29.88,SSE,161,1.5,9.0,74,0.00,,CLR,0.00,VWS V14.01,2013-05-28 07:18:00,
2013-05-28 02:23:00,70.7,62.4,29.88,SSE,163,1.5,10.5,75,0.00,,CLR,0.00,VWS V14.01,2013-05-28 07:23:00,
2013-05-28 02:28:00,70.6,62.3,29.88,SSE,163,0.0,10.5,75,0.00,,CLR,0.00,VWS V14.01,2013-05-28 07:28:00,
2013-05-28 02:33:00,70.6,62.3,29.88,SSE,162,1.5,7.5,75,0.00,,CLR,0.00,VWS V14.01,2013-05-28 07:33:00,
2013-05-28 02:38:00,70.5,62.2,29.87,SSE,161,0.0,7.5,75,0.00,,CLR,0.00,VWS V14.01,2013-05-28 07:38:00,
2013-05-28 02:43:00,70.4,62.1,29.88,SSE,157,7.5,10.5,75,0.00,,CLR,0.00,VWS V14.01,2013-05-28 07:43:00,
2013-05-28 02:48:00,70.3,62.0,29.87,SSE,163,6.0,10.5,75,0.00,,CLR,0.00,VWS V14.01,2013-05-28 07:48:00,
2013-05-28 02:53:00,70.3,62.0,29.87,SSE,163,9.0,10.5,75,0.00,,CLR,0.00,VWS V14.01,2013-05-28 07:53:00,
2013-05-28 02:58:00,70.3,62.0,29.88,SSE,162,3.0,10.5,75,0.00,,CLR,0.00,VWS V14.01,2013-05-28 07:58:00,
2013-05-28 03:03:00,70.3,62.0,29.87,SSE,165,10.5,10.5,75,0.00,,CLR,0.00,VWS V14.01,2013-05-28 08:03:00,
2013-05-28 03:08:00,70.2,62.3,29.86,SSE,161,7.5,15.0,76,0.00,,CLR,0.00,VWS V14.01,2013-05-28 08:08:00,
2013-05-28 03:13:00,70.2,62.3,29.86,SSE,160,6.0,15.0,76,0.00,,CLR,0.00,VWS V14.01,2013-05-28 08:13:00,
2013-05-28 03:18:00,70.2,62.3,29.86,SSE,161,6.0,15.0,76,0.00,,CLR,0.00,VWS V14.01,2013-05-28 08:18:00,
2013-05-28 03:23:00,70.1,62.2,29.86,SSE,163,9.0,15.0,76,0.00,,CLR,0.00,VWS V14.01,2013-05-28 08:23:00,
2013-05-28 03:28:00,70.0,62.1,29.86,SSE,165,3.0,15.0,76,0.00,,CLR,0.00,VWS V14.01,2013-05-28 08:28:00,
2013-05-28 03:33:00,70.0,62.1,29.86,SSE,162,10.5,10.5,76,0.00,,CLR,0.00,VWS V14.01,2013-05-28 08:33:00,
2013-05-28 03:39:00,69.9,62.4,29.86,SSE,161,6.0,13.5,77,0.00,,CLR,0.00,VWS V14.01,2013-05-28 08:39:00,
2013-05-28 03:44:00,69.9,62.4,29.86,SSE,163,3.0,13.5,77,0.00,,CLR,0.00,VWS V14.01,2013-05-28 08:44:00,
2013-05-28 03:49:00,69.9,62.4,29.86,SSE,159,3.0,13.5,77,0.00,,CLR,0.00,VWS V14.01,2013-05-28 08:49:00,
2013-05-28 03:54:00,69.9,62.4,29.86,SSE,162,10.5,13.5,77,0.00,,CLR,0.00,VWS V14.01,2013-05-28 08:54:00,
2013-05-28 03:59:00,70.0,62.5,29.86,SSE,163,6.0,13.5,77,0.00,,CLR,0.00,VWS V14.01,2013-05-28 08:59:00,
2013-05-28 04:04:00,70.1,62.6,29.85,SSE,167,7.5,13.5,77,0.00,,CLR,0.00,VWS V14.01,2013-05-28 09:04:00,
2013-05-28 04:09:00,70.2,62.7,29.86,South,170,6.0,13.5,77,0.00,,CLR,0.00,VWS V14.01,2013-05-28 09:09:00,
2013-05-28 04:14:00,70.3,62.4,29.86,SSE,161,10.5,13.5,76,0.00,,CLR,0.00,VWS V14.01,2013-05-28 09:14:00,
2013-05-28 04:19:00,70.4,62.5,29.86,South,170,7.5,13.5,76,0.00,,CLR,0.00,VWS V14.01,2013-05-28 09:19:00,
2013-05-28 04:24:00,70.4,62.5,29.87,SSE,163,1.5,13.5,76,0.00,,CLR,0.00,VWS V14.01,2013-05-28 09:24:00,
2013-05-28 04:29:00,70.4,62.5,29.87,SSE,167,0.0,7.5,76,0.00,,CLR,0.00,VWS V14.01,2013-05-28 09:29:00,
2013-05-28 04:34:00,70.5,62.6,29.86,SSE,164,6.0,15.0,76,0.00,,CLR,0.00,VWS V14.01,2013-05-28 09:34:00,
2013-05-28 04:39:00,70.4,62.8,29.86,SSE,161,9.0,15.0,77,0.00,,CLR,0.00,VWS V14.01,2013-05-28 09:39:00,
2013-05-28 04:44:00,70.3,62.8,29.86,SSE,161,9.0,15.0,77,0.00,,CLR,0.00,VWS V14.01,2013-05-28 09:44:00,
2013-05-28 04:49:00,70.2,62.7,29.86,SSE,167,3.0,15.0,77,0.00,,CLR,0.00,VWS V14.01,2013-05-28 09:49:00,
2013-05-28 04:54:00,70.1,62.9,29.86,South,175,7.5,15.0,78,0.00,,CLR,0.00,VWS V14.01,2013-05-28 09:54:00,
2013-05-28 04:59:00,70.0,62.8,29.86,SSE,165,9.0,10.5,78,0.00,,CLR,0.00,VWS V14.01,2013-05-28 09:59:00,
2013-05-28 05:04:00,69.9,62.7,29.86,SSE,163,6.0,15.0,78,0.00,,CLR,0.00,VWS V14.01,2013-05-28 10:04:00,
2013-05-28 05:09:00,69.9,62.7,29.86,SSE,157,12.0,15.0,78,0.00,,CLR,0.00,VWS V14.01,2013-05-28 10:09:00,
2013-05-28 05:14:00,69.9,63.1,29.87,SSE,165,10.5,15.0,79,0.00,,CLR,0.00,VWS V14.01,2013-05-28 10:14:00,
2013-05-28 05:19:00,70.0,63.2,29.87,SSE,167,9.0,15.0,79,0.00,,CLR,0.00,VWS V14.01,2013-05-28 10:19:00,
2013-05-28 05:24:00,70.0,63.2,29.88,SSE,163,7.5,15.0,79,0.00,,CLR,0.00,VWS V14.01,2013-05-28 10:24:00,
2013-05-28 05:29:00,70.0,63.2,29.88,SSE,161,7.5,9.0,79,0.00,,CLR,0.00,VWS V14.01,2013-05-28 10:29:00,
2013-05-28 05:34:00,70.1,63.3,29.89,SSE,164,6.0,13.5,79,0.00,,CLR,0.00,VWS V14.01,2013-05-28 10:34:00,
2013-05-28 05:39:00,70.1,63.3,29.90,SSE,166,3.0,13.5,79,0.00,,CLR,0.00,VWS V14.01,2013-05-28 10:39:00,
2013-05-28 05:44:00,70.2,63.4,29.90,SSE,165,3.0,13.5,79,0.00,,CLR,0.00,VWS V14.01,2013-05-28 10:44:00,
2013-05-28 05:50:00,70.3,63.5,29.90,SSE,165,6.0,13.5,79,0.00,,CLR,0.00,VWS V14.01,2013-05-28 10:50:00,
2013-05-28 05:55:00,70.4,63.6,29.90,SSE,163,9.0,13.5,79,0.00,,CLR,0.00,VWS V14.01,2013-05-28 10:55:00,
2013-05-28 06:00:00,70.6,63.8,29.90,SSE,161,12.0,13.5,79,0.00,,CLR,0.00,VWS V14.01,2013-05-28 11:00:00,
2013-05-28 06:05:00,70.8,64.0,29.90,South,185,12.0,15.0,79,0.00,,CLR,0.00,VWS V14.01,2013-05-28 11:05:00,
2013-05-28 06:10:00,70.9,63.7,29.90,SSE,166,9.0,16.5,78,0.00,,CLR,0.00,VWS V14.01,2013-05-28 11:10:00,
2013-05-28 06:15:00,71.0,64.2,29.90,South,173,13.5,18.0,79,0.00,,CLR,0.00,VWS V14.01,2013-05-28 11:15:00,
2013-05-28 06:20:00,71.0,64.2,29.89,SSE,161,15.0,18.0,79,0.00,,CLR,0.00,VWS V14.01,2013-05-28 11:20:00,
2013-05-28 06:25:00,71.0,64.2,29.89,SSE,160,6.0,19.5,79,0.00,,CLR,0.00,VWS V14.01,2013-05-28 11:25:00,
2013-05-28 06:30:00,71.0,64.2,29.89,South,169,7.5,9.0,79,0.00,,CLR,0.00,VWS V14.01,2013-05-28 11:30:00,
2013-05-28 06:35:00,71.0,64.2,29.89,SSE,161,7.5,15.0,79,0.00,,CLR,0.00,VWS V14.01,2013-05-28 11:35:00,
2013-05-28 06:40:00,71.1,64.3,29.90,SW,214,3.0,16.5,79,0.00,,CLR,0.00,VWS V14.01,2013-05-28 11:40:00,
2013-05-28 06:45:00,71.3,64.5,29.90,South,171,6.0,16.5,79,0.00,,CLR,0.00,VWS V14.01,2013-05-28 11:45:00,
2013-05-28 06:50:00,71.4,64.6,29.90,SSE,163,9.0,16.5,79,0.00,,CLR,0.00,VWS V14.01,2013-05-28 11:50:00,
2013-05-28 06:55:00,71.6,64.8,29.90,SSE,155,12.0,18.0,79,0.00,,CLR,0.00,VWS V14.01,2013-05-28 11:55:00,
2013-05-28 07:00:00,71.7,64.8,29.90,SSE,166,10.5,13.5,79,0.00,,OVC200,0.00,VWS V14.01,2013-05-28 12:00:00,
2013-05-28 07:05:00,71.8,64.9,29.90,SSE,154,9.0,18.0,79,0.00,,OVC200,0.00,VWS V14.01,2013-05-28 12:05:00,
2013-05-28 07:10:00,71.9,65.0,29.90,SSE,155,7.5,18.0,79,0.00,,OVC200,0.00,VWS V14.01,2013-05-28 12:10:00,
2013-05-28 07:15:00,72.0,65.5,29.91,SSE,158,12.0,18.0,80,0.00,,OVC200,0.00,VWS V14.01,2013-05-28 12:15:00,
2013-05-28 07:20:00,72.1,65.6,29.91,SSE,157,6.0,19.5,80,0.00,,OVC200,0.00,VWS V14.01,2013-05-28 12:20:00,
2013-05-28 07:25:00,72.1,65.6,29.91,SSE,159,13.5,19.5,80,0.00,,OVC200,0.00,VWS V14.01,2013-05-28 12:25:00,
2013-05-28 07:30:00,72.1,65.6,29.91,South,173,3.0,10.5,80,0.00,,OVC200,0.00,VWS V14.01,2013-05-28 12:30:00,
2013-05-28 07:35:00,72.2,66.1,29.92,South,185,4.5,10.5,81,0.00,,OVC200,0.00,VWS V14.01,2013-05-28 12:35:00,
2013-05-28 07:40:00,72.3,66.2,29.93,SSE,159,1.5,12.0,81,0.00,,OVC200,0.00,VWS V14.01,2013-05-28 12:40:00,
2013-05-28 07:45:00,72.4,66.2,29.93,South,183,6.0,13.5,81,0.00,,OVC200,0.00,VWS V14.01,2013-05-28 12:45:00,
2013-05-28 07:50:00,72.5,66.3,29.93,SSE,150,10.5,13.5,81,0.00,,OVC200,0.00,VWS V14.01,2013-05-28 12:50:00,
2013-05-28 07:55:00,72.7,66.5,29.93,South,173,0.0,13.5,81,0.00,,OVC200,0.00,VWS V14.01,2013-05-28 12:55:00,
2013-05-28 08:00:00,72.8,66.6,29.93,South,170,0.0,9.0,81,0.00,,OVC200,0.00,VWS V14.01,2013-05-28 13:00:00,
2013-05-28 08:05:00,73.0,66.8,29.93,SSW,212,7.5,9.0,81,0.00,,OVC200,0.00,VWS V14.01,2013-05-28 13:05:00,
2013-05-28 08:10:00,73.1,66.9,29.92,South,169,9.0,13.5,81,0.00,,OVC200,0.00,VWS V14.01,2013-05-28 13:10:00,
2013-05-28 08:15:00,73.3,67.1,29.91,SSE,166,9.0,18.0,81,0.00,,OVC200,0.00,VWS V14.01,2013-05-28 13:15:00,
2013-05-28 08:21:00,73.5,67.0,29.91,SSE,164,10.5,18.0,80,0.00,,OVC200,0.00,VWS V14.01,2013-05-28 13:21:00,
2013-05-28 08:26:00,73.7,67.2,29.91,SE,141,10.5,19.5,80,0.00,,OVC200,0.00,VWS V14.01,2013-05-28 13:26:00,
2013-05-28 08:31:00,74.0,67.4,29.90,SSE,160,13.5,15.0,80,0.00,,OVC200,0.00,VWS V14.01,2013-05-28 13:31:00,
2013-05-28 08:36:00,74.2,67.3,29.90,SSW,209,1.5,19.5,79,0.00,,OVC200,0.00,VWS V14.01,2013-05-28 13:36:00,
2013-05-28 08:41:00,74.5,67.6,29.90,SSE,165,10.5,19.5,79,0.00,,OVC200,0.00,VWS V14.01,2013-05-28 13:41:00,
2013-05-28 08:46:00,74.8,67.5,29.90,SSW,200,13.5,25.5,78,0.00,,OVC200,0.00,VWS V14.01,2013-05-28 13:46:00,
2013-05-28 08:51:00,75.0,67.7,29.90,SW,221,9.0,31.5,78,0.00,,OVC200,0.00,VWS V14.01,2013-05-28 13:51:00,
2013-05-28 08:56:00,75.2,67.5,29.89,SSE,166,9.0,31.5,77,0.00,,OVC200,0.00,VWS V14.01,2013-05-28 13:56:00,
2013-05-28 09:01:00,75.4,68.1,29.90,South,171,12.0,21.0,78,0.00,,OVC200,0.00,VWS V14.01,2013-05-28 14:01:00,
2013-05-28 09:06:00,75.6,67.9,29.89,South,186,9.0,24.0,77,0.00,,OVC200,0.00,VWS V14.01,2013-05-28 14:06:00,
2013-05-28 09:11:00,75.8,68.1,29.89,SSE,167,16.5,24.0,77,0.00,,OVC200,0.00,VWS V14.01,2013-05-28 14:11:00,
2013-05-28 09:16:00,76.0,67.9,29.89,South,173,7.5,25.5,76,0.00,,OVC200,0.00,VWS V14.01,2013-05-28 14:16:00,
2013-05-28 09:21:00,76.2,68.1,29.90,SSW,196,4.5,25.5,76,0.00,,OVC200,0.00,VWS V14.01,2013-05-28 14:21:00,
2013-05-28 09:26:00,76.3,67.8,29.90,South,184,0.0,28.5,75,0.00,,OVC200,0.00,VWS V14.01,2013-05-28 14:26:00,
2013-05-28 09:31:00,76.5,68.0,29.90,SSW,202,12.0,19.5,75,0.00,,OVC200,0.00,VWS V14.01,2013-05-28 14:31:00,
2013-05-28 09:36:00,76.8,68.3,29.90,South,171,12.0,19.5,75,0.00,,OVC200,0.00,VWS V14.01,2013-05-28 14:36:00,
2013-05-28 09:41:00,77.0,68.1,29.90,South,174,9.0,21.0,74,0.00,,OVC200,0.00,VWS V14.01,2013-05-28 14:41:00,
2013-05-28 09:46:00,77.1,68.2,29.90,SSW,198,19.5,21.0,74,0.00,,OVC200,0.00,VWS V14.01,2013-05-28 14:46:00,
2013-05-28 09:51:00,77.2,67.9,29.90,SSW,200,7.5,21.0,73,0.00,,OVC200,0.00,VWS V14.01,2013-05-28 14:51:00,
2013-05-28 09:56:00,77.5,68.2,29.89,South,190,13.5,21.0,73,0.00,,OVC200,0.00,VWS V14.01,2013-05-28 14:56:00,
2013-05-28 10:01:00,77.8,68.1,29.89,SSW,196,1.5,16.5,72,0.00,,OVC200,0.00,VWS V14.01,2013-05-28 15:01:00,
2013-05-28 10:06:00,78.2,67.6,29.89,SSE,154,10.5,19.5,70,0.00,,OVC200,0.00,VWS V14.01,2013-05-28 15:06:00,
2013-05-28 10:11:00,78.5,67.1,29.89,SSW,207,12.0,24.0,68,0.00,,OVC200,0.00,VWS V14.01,2013-05-28 15:11:00,
2013-05-28 10:16:00,78.8,66.9,29.89,SW,215,10.5,31.5,67,0.00,,OVC200,0.00,VWS V14.01,2013-05-28 15:16:00,
2013-05-28 10:21:00,79.0,67.1,29.89,SSE,161,22.5,31.5,67,0.00,,OVC200,0.00,VWS V14.01,2013-05-28 15:21:00,
2013-05-28 10:26:00,79.3,67.0,29.89,SSW,202,10.5,31.5,66,0.00,,OVC200,0.00,VWS V14.01,2013-05-28 15:26:00,
2013-05-28 10:31:00,79.4,67.5,29.88,South,169,6.0,19.5,67,0.00,,OVC200,0.00,VWS V14.01,2013-05-28 15:31:00,
2013-05-28 10:36:00,79.9,68.0,29.89,SSW,195,6.0,21.0,67,0.00,,OVC200,0.00,VWS V14.01,2013-05-28 15:36:00,
2013-05-28 10:41:00,80.1,67.7,29.89,South,175,13.5,24.0,66,0.00,,OVC200,0.00,VWS V14.01,2013-05-28 15:41:00,
2013-05-28 10:46:00,80.2,67.8,29.89,South,178,6.0,24.0,66,0.00,,OVC200,0.00,VWS V14.01,2013-05-28 15:46:00,
2013-05-28 10:51:00,80.4,67.6,29.90,SW,217,18.0,24.0,65,0.00,,OVC200,0.00,VWS V14.01,2013-05-28 15:51:00,
2013-05-28 10:56:00,80.6,67.3,29.90,SSE,163,9.0,25.5,64,0.00,,OVC200,0.00,VWS V14.01,2013-05-28 15:56:00,
2013-05-28 11:01:00,80.7,67.4,29.90,South,171,3.0,10.5,64,0.00,,OVC200,0.00,VWS V14.01,2013-05-28 16:01:00,
2013-05-28 11:06:00,80.7,67.4,29.91,South,169,0.0,13.5,64,0.00,,OVC200,0.00,VWS V14.01,2013-05-28 16:06:00,
2013-05-28 11:12:00,80.6,65.9,29.91,South,182,12.0,22.5,61,0.00,,OVC200,0.00,VWS V14.01,2013-05-28 16:12:00,
2013-05-28 11:17:00,80.6,66.4,29.91,SSE,163,6.0,22.5,62,0.00,,OVC200,0.00,VWS V14.01,2013-05-28 16:17:00,
2013-05-28 11:22:00,80.9,67.1,29.91,SSE,161,3.0,22.5,63,0.00,,OVC200,0.00,VWS V14.01,2013-05-28 16:22:00,
2013-05-28 11:27:00,81.4,66.7,29.92,SSW,202,16.5,22.5,61,0.00,,OVC200,0.00,VWS V14.01,2013-05-28 16:27:00,
2013-05-28 11:32:00,81.6,66.4,29.92,South,189,13.5,18.0,60,0.00,,OVC200,0.00,VWS V14.01,2013-05-28 16:32:00,
2013-05-28 11:37:00,81.4,65.7,29.92,SW,229,12.0,19.5,59,0.00,,OVC200,0.00,VWS V14.01,2013-05-28 16:37:00,
2013-05-28 11:42:00,81.2,66.9,29.93,South,171,3.0,19.5,62,0.00,,OVC200,0.00,VWS V14.01,2013-05-28 16:42:00,
2013-05-28 11:47:00,81.1,65.9,29.93,SSW,201,4.5,19.5,60,0.00,,OVC200,0.00,VWS V14.01,2013-05-28 16:47:00,
2013-05-28 11:52:00,81.2,67.4,29.93,SSW,205,3.0,19.5,63,0.00,,OVC200,0.00,VWS V14.01,2013-05-28 16:52:00,
2013-05-28 11:57:00,81.3,67.1,29.93,SSW,209,3.0,19.5,62,0.00,,OVC200,0.00,VWS V14.01,2013-05-28 16:57:00,
2013-05-28 12:02:00,81.2,67.4,29.93,SW,214,7.5,12.0,63,0.00,,OVC200,0.00,VWS V14.01,2013-05-28 17:02:00,
2013-05-28 12:07:00,81.3,67.5,29.93,South,175,9.0,13.5,63,0.00,,OVC200,0.00,VWS V14.01,2013-05-28 17:07:00,
2013-05-28 12:12:00,81.4,67.6,29.93,WNW,297,1.5,13.5,63,0.00,,OVC200,0.00,VWS V14.01,2013-05-28 17:12:00,
2013-05-28 12:17:00,81.3,67.5,29.93,SSE,163,9.0,13.5,63,0.00,,OVC200,0.00,VWS V14.01,2013-05-28 17:17:00,
2013-05-28 12:22:00,81.4,68.1,29.93,South,189,4.5,19.5,64,0.00,,OVC200,0.00,VWS V14.01,2013-05-28 17:22:00,
2013-05-28 12:27:00,81.6,67.8,29.93,SSE,159,9.0,19.5,63,0.00,,OVC200,0.00,VWS V14.01,2013-05-28 17:27:00,
2013-05-28 12:32:00,81.5,67.7,29.93,South,178,7.5,12.0,63,0.00,,OVC200,0.00,VWS V14.01,2013-05-28 17:32:00,
2013-05-28 12:37:00,81.3,67.1,29.93,SSW,211,12.0,13.5,62,0.00,,OVC200,0.00,VWS V14.01,2013-05-28 17:37:00,
2013-05-28 12:42:00,80.8,67.0,29.92,SSW,212,6.0,15.0,63,0.00,,OVC200,0.00,VWS V14.01,2013-05-28 17:42:00,
2013-05-28 12:47:00,80.3,67.0,29.93,SW,215,3.0,15.0,64,0.00,,OVC200,0.00,VWS V14.01,2013-05-28 17:47:00,
2013-05-28 12:52:00,80.3,67.0,29.92,South,169,6.0,15.0,64,0.00,,OVC200,0.00,VWS V14.01,2013-05-28 17:52:00,
2013-05-28 12:57:00,80.5,67.2,29.92,SSE,156,12.0,16.5,64,0.00,,OVC200,0.00,VWS V14.01,2013-05-28 17:57:00,
2013-05-28 13:02:00,80.9,68.0,29.91,SSE,165,9.0,15.0,65,0.00,,BKN250,0.00,VWS V14.01,2013-05-28 18:02:00,
2013-05-28 13:07:00,81.2,67.9,29.91,SSW,200,12.0,16.5,64,0.00,,BKN250,0.00,VWS V14.01,2013-05-28 18:07:00,
2013-05-28 13:12:00,81.3,67.1,29.90,South,180,13.5,24.0,62,0.00,,BKN250,0.00,VWS V14.01,2013-05-28 18:12:00,
2013-05-28 13:17:00,81.6,67.3,29.90,SSE,165,18.0,24.0,62,0.00,,BKN250,0.00,VWS V14.01,2013-05-28 18:17:00,
2013-05-28 13:22:00,81.6,66.9,29.90,SSE,165,9.0,24.0,61,0.00,,BKN250,0.00,VWS V14.01,2013-05-28 18:22:00,
2013-05-28 13:27:00,82.0,67.7,29.89,South,186,10.5,24.0,62,0.00,,BKN250,0.00,VWS V14.01,2013-05-28 18:27:00,
2013-05-28 13:32:00,82.5,67.7,29.89,SSE,155,9.0,15.0,61,0.00,,BKN250,0.00,VWS V14.01,2013-05-28 18:32:00,
2013-05-28 13:37:00,82.9,67.6,29.89,South,171,13.5,21.0,60,0.00,,BKN250,0.00,VWS V14.01,2013-05-28 18:37:00,
2013-05-28 13:42:00,83.0,66.2,29.89,South,189,13.5,28.5,57,0.00,,BKN250,0.00,VWS V14.01,2013-05-28 18:42:00,
2013-05-28 13:47:00,83.3,66.5,29.88,SW,214,10.5,28.5,57,0.00,,BKN250,0.00,VWS V14.01,2013-05-28 18:47:00,
2013-05-28 13:52:00,83.7,67.4,29.88,South,182,15.0,30.0,58,0.00,,BKN250,0.00,VWS V14.01,2013-05-28 18:52:00,
2013-05-28 13:57:00,83.9,66.5,29.88,South,172,12.0,30.0,56,0.00,,BKN250,0.00,VWS V14.01,2013-05-28 18:57:00,
2013-05-28 14:02:00,84.2,67.3,29.88,South,171,6.0,24.0,57,0.00,,BKN250,0.00,VWS V14.01,2013-05-28 19:02:00,
2013-05-28 14:07:00,84.5,67.1,29.88,South,171,12.0,24.0,56,0.00,,BKN250,0.00,VWS V14.01,2013-05-28 19:07:00,
2013-05-28 14:12:00,84.7,66.8,29.88,SSE,165,15.0,24.0,55,0.00,,BKN250,0.00,VWS V14.01,2013-05-28 19:12:00,
2013-05-28 14:17:00,84.7,67.8,29.88,SSE,167,3.0,24.0,57,0.00,,BKN250,0.00,VWS V14.01,2013-05-28 19:17:00,
2013-05-28 14:22:00,84.8,66.8,29.88,SSE,167,18.0,28.5,55,0.00,,BKN250,0.00,VWS V14.01,2013-05-28 19:22:00,
2013-05-28 14:28:00,85.1,66.6,29.88,SW,227,10.5,28.5,54,0.00,,BKN250,0.00,VWS V14.01,2013-05-28 19:28:00,
2013-05-28 14:33:00,85.2,67.2,29.88,SSE,150,15.0,24.0,55,0.00,,BKN250,0.00,VWS V14.01,2013-05-28 19:33:00,
2013-05-28 14:38:00,85.6,67.6,29.88,SSE,161,12.0,25.5,55,0.00,,BKN250,0.00,VWS V14.01,2013-05-28 19:38:00,
2013-05-28 14:43:00,85.8,66.2,29.88,South,182,15.0,25.5,52,0.00,,BKN250,0.00,VWS V14.01,2013-05-28 19:43:00,
2013-05-28 14:48:00,86.0,66.9,29.88,South,190,13.5,25.5,53,0.00,,BKN250,0.00,VWS V14.01,2013-05-28 19:48:00,
2013-05-28 14:53:00,86.0,66.9,29.88,SW,215,10.5,25.5,53,0.00,,BKN250,0.00,VWS V14.01,2013-05-28 19:53:00,
2013-05-28 14:58:00,85.7,66.1,29.88,South,191,10.5,25.5,52,0.00,,BKN250,0.00,VWS V14.01,2013-05-28 19:58:00,
2013-05-28 15:03:00,86.0,66.9,29.87,SSW,204,6.0,15.0,53,0.00,,BKN250,0.00,VWS V14.01,2013-05-28 20:03:00,
2013-05-28 15:08:00,85.9,66.2,29.87,South,171,13.5,21.0,52,0.00,,BKN250,0.00,VWS V14.01,2013-05-28 20:08:00,
2013-05-28 15:13:00,86.1,66.4,29.87,SW,215,7.5,27.0,52,0.00,,BKN250,0.00,VWS V14.01,2013-05-28 20:13:00,
2013-05-28 15:18:00,86.3,67.2,29.87,South,186,10.5,27.0,53,0.00,,BKN250,0.00,VWS V14.01,2013-05-28 20:18:00,
2013-05-28 15:23:00,86.2,65.4,29.87,SW,235,15.0,27.0,50,0.00,,BKN250,0.00,VWS V14.01,2013-05-28 20:23:00,
2013-05-28 15:28:00,85.6,64.8,29.88,SSE,165,12.0,27.0,50,0.00,,BKN250,0.00,VWS V14.01,2013-05-28 20:28:00,
2013-05-28 15:33:00,85.2,64.5,29.87,SSW,200,9.0,22.5,50,0.00,,BKN250,0.00,VWS V14.01,2013-05-28 20:33:00,
2013-05-28 15:38:00,85.1,65.0,29.86,South,175,13.5,22.5,51,0.00,,BKN250,0.00,VWS V14.01,2013-05-28 20:38:00,
2013-05-28 15:43:00,85.0,64.3,29.86,South,177,7.5,24.0,50,0.00,,BKN250,0.00,VWS V14.01,2013-05-28 20:43:00,
2013-05-28 15:48:00,85.0,64.9,29.85,South,174,9.0,24.0,51,0.00,,BKN250,0.00,VWS V14.01,2013-05-28 20:48:00,
2013-05-28 15:53:00,85.0,64.3,29.85,SSE,160,10.5,28.5,50,0.00,,BKN250,0.00,VWS V14.01,2013-05-28 20:53:00,
2013-05-28 15:58:00,85.2,65.1,29.85,South,174,10.5,28.5,51,0.00,,BKN250,0.00,VWS V14.01,2013-05-28 20:58:00,
2013-05-28 16:03:00,85.7,65.5,29.85,South,182,7.5,22.5,51,0.00,,BKN250,0.00,VWS V14.01,2013-05-28 21:03:00,
2013-05-28 16:08:00,86.2,65.4,29.85,SSW,192,12.0,22.5,50,0.00,,BKN250,0.00,VWS V14.01,2013-05-28 21:08:00,
2013-05-28 16:13:00,86.5,65.1,29.85,SE,133,13.5,22.5,49,0.00,,BKN250,0.00,VWS V14.01,2013-05-28 21:13:00,
2013-05-28 16:18:00,86.6,65.8,29.85,SSW,211,7.5,24.0,50,0.00,,BKN250,0.00,VWS V14.01,2013-05-28 21:18:00,
2013-05-28 16:23:00,86.6,65.2,29.85,SSE,166,12.0,24.0,49,0.00,,BKN250,0.00,VWS V14.01,2013-05-28 21:23:00,
2013-05-28 16:28:00,86.4,65.0,29.85,South,170,13.5,25.5,49,0.00,,BKN250,0.00,VWS V14.01,2013-05-28 21:28:00,
2013-05-28 16:33:00,86.3,64.9,29.85,South,180,13.5,27.0,49,0.00,,BKN250,0.00,VWS V14.01,2013-05-28 21:33:00,
2013-05-28 16:38:00,86.1,65.3,29.85,SSE,164,16.5,27.0,50,0.00,,BKN250,0.00,VWS V14.01,2013-05-28 21:38:00,
2013-05-28 16:43:00,86.4,65.6,29.84,South,170,7.5,27.0,50,0.00,,BKN250,0.00,VWS V14.01,2013-05-28 21:43:00,
2013-05-28 16:48:00,86.5,65.7,29.85,South,181,13.5,27.0,50,0.00,,BKN250,0.00,VWS V14.01,2013-05-28 21:48:00,
2013-05-28 16:53:00,86.2,64.8,29.84,SSE,157,13.5,27.0,49,0.00,,BKN250,0.00,VWS V14.01,2013-05-28 21:53:00,
2013-05-28 16:58:00,86.1,64.7,29.84,South,173,6.0,27.0,49,0.00,,BKN250,0.00,VWS V14.01,2013-05-28 21:58:00,
2013-05-28 17:03:00,85.8,65.0,29.84,SSE,155,12.0,27.0,50,0.00,,BKN250,0.00,VWS V14.01,2013-05-28 22:03:00,
2013-05-28 17:08:00,85.8,64.4,29.84,SW,217,13.5,27.0,49,0.00,,BKN250,0.00,VWS V14.01,2013-05-28 22:08:00,
2013-05-28 17:13:00,86.0,64.0,29.83,SSE,167,22.5,33.0,48,0.00,,BKN250,0.00,VWS V14.01,2013-05-28 22:13:00,
2013-05-28 17:18:00,86.5,65.1,29.83,SSE,153,10.5,33.0,49,0.00,,BKN250,0.00,VWS V14.01,2013-05-28 22:18:00,
2013-05-28 17:23:00,86.8,64.8,29.83,South,181,21.0,33.0,48,0.00,,BKN250,0.00,VWS V14.01,2013-05-28 22:23:00,
2013-05-28 17:28:00,86.9,65.5,29.83,SSE,153,16.5,33.0,49,0.00,,BKN250,0.00,VWS V14.01,2013-05-28 22:28:00,
2013-05-28 17:33:00,86.8,67.6,29.83,SSE,165,6.0,21.0,53,0.00,,BKN250,0.00,VWS V14.01,2013-05-28 22:33:00,
2013-05-28 17:38:00,86.7,68.1,29.83,SSE,159,15.0,21.0,54,0.00,,BKN250,0.00,VWS V14.01,2013-05-28 22:38:00,
2013-05-28 17:43:00,86.5,68.4,29.83,SSE,165,13.5,24.0,55,0.00,,BKN250,0.00,VWS V14.01,2013-05-28 22:43:00,
2013-05-28 17:48:00,86.3,68.2,29.83,South,172,13.5,24.0,55,0.00,,BKN250,0.00,VWS V14.01,2013-05-28 22:48:00,
2013-05-28 17:53:00,85.8,67.8,29.83,SSW,194,12.0,24.0,55,0.00,,BKN250,0.00,VWS V14.01,2013-05-28 22:53:00,
2013-05-28 17:58:00,85.4,67.4,29.83,SW,222,10.5,24.0,55,0.00,,BKN250,0.00,VWS V14.01,2013-05-28 22:58:00,
2013-05-28 18:03:00,85.0,67.0,29.83,South,177,18.0,25.5,55,0.00,,BKN250,0.00,VWS V14.01,2013-05-28 23:03:00,
2013-05-28 18:08:00,84.8,67.4,29.83,SSE,168,10.5,25.5,56,0.00,,BKN250,0.00,VWS V14.01,2013-05-28 23:08:00,
2013-05-28 18:13:00,84.6,67.7,29.83,South,172,6.0,25.5,57,0.00,,BKN250,0.00,VWS V14.01,2013-05-28 23:13:00,
2013-05-28 18:18:00,84.3,67.4,29.83,SSE,158,13.5,25.5,57,0.00,,BKN250,0.00,VWS V14.01,2013-05-28 23:18:00,
2013-05-28 18:23:00,84.1,67.2,29.83,South,169,15.0,28.5,57,0.00,,BKN250,0.00,VWS V14.01,2013-05-28 23:23:00,
2013-05-28 18:28:00,84.0,67.1,29.83,South,169,22.5,28.5,57,0.00,,BKN250,0.00,VWS V14.01,2013-05-28 23:28:00,
2013-05-28 18:33:00,84.0,67.1,29.83,SSE,165,12.0,22.5,57,0.00,,BKN250,0.00,VWS V14.01,2013-05-28 23:33:00,
2013-05-28 18:38:00,84.0,67.1,29.83,SSW,209,18.0,22.5,57,0.00,,CLR,0.00,VWS V14.01,2013-05-28 23:38:00,
2013-05-28 18:43:00,84.0,67.1,29.83,SSW,207,10.5,25.5,57,0.00,,CLR,0.00,VWS V14.01,2013-05-28 23:43:00,
2013-05-28 18:48:00,83.9,67.1,29.83,SSE,165,7.5,25.5,57,0.00,,CLR,0.00,VWS V14.01,2013-05-28 23:48:00,
2013-05-28 18:53:00,83.8,67.0,29.83,South,172,18.0,25.5,57,0.00,,CLR,0.00,VWS V14.01,2013-05-28 23:53:00,
2013-05-28 18:58:00,83.7,66.9,29.84,SSE,165,16.5,25.5,57,0.00,,CLR,0.00,VWS V14.01,2013-05-28 23:58:00,
2013-05-28 19:03:00,83.6,66.8,29.84,SSW,205,7.5,18.0,57,0.00,,CLR,0.00,VWS V14.01,2013-05-29 00:03:00,
2013-05-28 19:08:00,83.4,66.6,29.84,SSE,160,9.0,18.0,57,0.00,,CLR,0.00,VWS V14.01,2013-05-29 00:08:00,
2013-05-28 19:13:00,83.3,66.5,29.84,South,175,10.5,22.5,57,0.00,,CLR,0.00,VWS V14.01,2013-05-29 00:13:00,
2013-05-28 19:18:00,83.2,66.4,29.84,SSE,167,18.0,24.0,57,0.00,,CLR,0.00,VWS V14.01,2013-05-29 00:18:00,
2013-05-28 19:23:00,83.2,66.4,29.85,South,173,10.5,24.0,57,0.00,,CLR,0.00,VWS V14.01,2013-05-29 00:23:00,
2013-05-28 19:28:00,83.0,66.2,29.85,South,173,10.5,25.5,57,0.00,,CLR,0.00,VWS V14.01,2013-05-29 00:28:00,
2013-05-28 19:33:00,82.9,66.1,29.85,SSW,199,1.5,16.5,57,0.00,,CLR,0.00,VWS V14.01,2013-05-29 00:33:00,
2013-05-28 19:38:00,82.7,66.4,29.84,SSE,167,6.0,16.5,58,0.00,,CLR,0.00,VWS V14.01,2013-05-29 00:38:00,
2013-05-28 19:43:00,82.5,66.2,29.85,SSE,158,3.0,16.5,58,0.00,,CLR,0.00,VWS V14.01,2013-05-29 00:43:00,
2013-05-28 19:48:00,82.4,66.2,29.84,SSE,159,7.5,16.5,58,0.00,,CLR,0.00,VWS V14.01,2013-05-29 00:48:00,
2013-05-28 19:53:00,82.2,66.0,29.84,SSE,165,10.5,16.5,58,0.00,,CLR,0.00,VWS V14.01,2013-05-29 00:53:00,
2013-05-28 19:58:00,82.1,65.9,29.84,SSE,161,6.0,16.5,58,0.00,,CLR,0.00,VWS V14.01,2013-05-29 00:58:00,
2013-05-28 20:03:00,82.0,66.3,29.85,SSE,162,6.0,10.5,59,0.00,,CLR,0.00,VWS V14.01,2013-05-29 01:03:00,
2013-05-28 20:08:00,81.8,66.1,29.84,South,177,1.5,10.5,59,0.00,,CLR,0.00,VWS V14.01,2013-05-29 01:08:00,
2013-05-28 20:13:00,81.6,66.4,29.85,SSE,162,0.0,10.5,60,0.00,,CLR,0.00,VWS V14.01,2013-05-29 01:13:00,
2013-05-28 20:18:00,81.4,66.7,29.85,SSE,161,0.0,10.5,61,0.00,,CLR,0.00,VWS V14.01,2013-05-29 01:18:00,
2013-05-28 20:23:00,81.2,66.5,29.85,SSE,161,6.0,10.5,61,0.00,,CLR,0.00,VWS V14.01,2013-05-29 01:23:00,
2013-05-28 20:29:00,81.1,66.9,29.85,SSE,162,0.0,10.5,62,0.00,,CLR,0.00,VWS V14.01,2013-05-29 01:29:00,
2013-05-28 20:33:00,80.9,67.1,29.84,SSE,162,6.0,9.0,63,0.00,,CLR,0.00,VWS V14.01,2013-05-29 01:33:00,
2013-05-28 20:38:00,80.7,66.9,29.84,SSE,163,3.0,12.0,63,0.00,,CLR,0.00,VWS V14.01,2013-05-29 01:38:00,
2013-05-28 20:43:00,80.5,67.2,29.85,SSE,167,9.0,12.0,64,0.00,,CLR,0.00,VWS V14.01,2013-05-29 01:43:00,
2013-05-28 20:48:00,80.4,67.1,29.85,SSE,154,7.5,12.0,64,0.00,,CLR,0.00,VWS V14.01,2013-05-29 01:48:00,
2013-05-28 20:54:00,80.3,67.0,29.86,SSE,161,3.0,12.0,64,0.00,,CLR,0.00,VWS V14.01,2013-05-29 01:54:00,
2013-05-28 20:59:00,80.2,66.9,29.85,SSE,163,7.5,12.0,64,0.00,,CLR,0.00,VWS V14.01,2013-05-29 01:59:00,
2013-05-28 21:04:00,80.2,66.9,29.84,SSE,158,13.5,15.0,64,0.00,,CLR,0.00,VWS V14.01,2013-05-29 02:04:00,
2013-05-28 21:09:00,80.1,66.8,29.84,SSE,166,6.0,16.5,64,0.00,,CLR,0.00,VWS V14.01,2013-05-29 02:09:00,
2013-05-28 21:14:00,80.0,67.2,29.84,SSE,165,7.5,16.5,65,0.00,,CLR,0.00,VWS V14.01,2013-05-29 02:14:00,
2013-05-28 21:19:00,79.9,66.7,29.84,SSE,163,6.0,19.5,64,0.00,,CLR,0.00,VWS V14.01,2013-05-29 02:19:00,
2013-05-28 21:24:00,79.9,66.7,29.84,SSE,155,12.0,19.5,64,0.00,,CLR,0.00,VWS V14.01,2013-05-29 02:24:00,
2013-05-28 21:29:00,79.7,66.5,29.84,SSE,165,3.0,19.5,64,0.00,,CLR,0.00,VWS V14.01,2013-05-29 02:29:00,
2013-05-28 21:34:00,79.7,66.5,29.85,South,177,0.0,18.0,64,0.00,,CLR,0.00,VWS V14.01,2013-05-29 02:34:00,
2013-05-28 21:39:00,79.6,65.9,29.85,SSE,162,3.0,18.0,63,0.00,,CLR,0.00,VWS V14.01,2013-05-29 02:39:00,
2013-05-28 21:44:00,79.5,66.3,29.85,SSE,163,6.0,18.0,64,0.00,,CLR,0.00,VWS V14.01,2013-05-29 02:44:00,
2013-05-28 21:49:00,79.3,65.6,29.86,SSE,161,7.5,18.0,63,0.00,,CLR,0.00,VWS V14.01,2013-05-29 02:49:00,
2013-05-28 21:54:00,79.3,65.2,29.86,SSE,161,3.0,18.0,62,0.00,,CLR,0.00,VWS V14.01,2013-05-29 02:54:00,
2013-05-28 21:59:00,79.4,65.3,29.86,SSE,167,1.5,18.0,62,0.00,,CLR,0.00,VWS V14.01,2013-05-29 02:59:00,
2013-05-28 22:04:00,79.4,64.3,29.86,SSE,148,9.0,13.5,60,0.00,,CLR,0.00,VWS V14.01,2013-05-29 03:04:00,
2013-05-28 22:09:00,79.5,63.9,29.86,SSE,163,7.5,15.0,59,0.00,,CLR,0.00,VWS V14.01,2013-05-29 03:09:00,
2013-05-28 22:14:00,79.4,64.3,29.86,SSE,161,3.0,15.0,60,0.00,,CLR,0.00,VWS V14.01,2013-05-29 03:14:00,
2013-05-28 22:19:00,79.3,63.7,29.87,SSW,213,6.0,15.0,59,0.00,,CLR,0.00,VWS V14.01,2013-05-29 03:19:00,
2013-05-28 22:24:00,79.2,63.7,29.87,SSE,165,1.5,15.0,59,0.00,,CLR,0.00,VWS V14.01,2013-05-29 03:24:00,
2013-05-28 22:29:00,79.0,63.5,29.88,South,169,3.0,15.0,59,0.00,,CLR,0.00,VWS V14.01,2013-05-29 03:29:00,
2013-05-28 22:34:00,78.9,62.9,29.88,South,172,9.0,10.5,58,0.00,,CLR,0.00,VWS V14.01,2013-05-29 03:34:00,
2013-05-28 22:39:00,78.9,62.9,29.89,South,169,7.5,12.0,58,0.00,,CLR,0.00,VWS V14.01,2013-05-29 03:39:00,
2013-05-28 22:44:00,78.8,62.8,29.90,SSE,159,1.5,15.0,58,0.00,,CLR,0.00,VWS V14.01,2013-05-29 03:44:00,
2013-05-28 22:49:00,78.7,62.7,29.90,SSE,163,1.5,15.0,58,0.00,,CLR,0.00,VWS V14.01,2013-05-29 03:49:00,
2013-05-28 22:54:00,78.6,63.1,29.89,SSE,161,6.0,15.0,59,0.00,,CLR,0.00,VWS V14.01,2013-05-29 03:54:00,
2013-05-28 22:59:00,78.4,62.9,29.90,SSE,164,3.0,15.0,59,0.00,,CLR,0.00,VWS V14.01,2013-05-29 03:59:00,
2013-05-28 23:01:00,78.3,62.8,29.90,SSE,163,1.5,6.0,59,0.00,,CLR,0.00,VWS V14.01,2013-05-29 04:01:00,
2013-05-28 23:06:00,78.1,62.6,29.90,SSE,167,7.5,12.0,59,0.00,,CLR,0.00,VWS V14.01,2013-05-29 04:06:00,
2013-05-28 23:11:00,78.0,62.5,29.90,SSE,161,3.0,12.0,59,0.00,,CLR,0.00,VWS V14.01,2013-05-29 04:11:00,
2013-05-28 23:16:00,77.8,62.8,29.90,SSE,167,7.5,15.0,60,0.00,,SCT050,0.00,VWS V14.01,2013-05-29 04:16:00,
2013-05-28 23:21:00,77.7,62.7,29.90,SSE,162,9.0,15.0,60,0.00,,SCT050,0.00,VWS V14.01,2013-05-29 04:21:00,
2013-05-28 23:26:00,77.6,62.6,29.90,SSE,168,12.0,16.5,60,0.00,,SCT050,0.00,VWS V14.01,2013-05-29 04:26:00,
2013-05-28 23:31:00,77.5,62.5,29.90,SSE,168,9.0,10.5,60,0.00,,SCT050,0.00,VWS V14.01,2013-05-29 04:31:00,
2013-05-28 23:36:00,77.4,62.4,29.90,SSE,164,6.0,12.0,60,0.00,,CLR,0.00,VWS V14.01,2013-05-29 04:36:00,
2013-05-28 23:41:00,77.3,62.3,29.90,SSE,159,9.0,16.5,60,0.00,,CLR,0.00,VWS V14.01,2013-05-29 04:41:00,
2013-05-28 23:46:00,77.2,62.2,29.90,SSE,158,10.5,16.5,60,0.00,,CLR,0.00,VWS V14.01,2013-05-29 04:46:00,
2013-05-28 23:51:00,77.1,62.6,29.90,SSE,152,15.0,16.5,61,0.00,,CLR,0.00,VWS V14.01,2013-05-29 04:51:00,
2013-05-28 23:56:00,77.1,62.6,29.90,SSE,163,7.5,16.5,61,0.00,,CLR,0.00,VWS V14.01,2013-05-29 04:56:00,